KAITUO 1B
1 40912U 15049P   18057.85072778 +.00001115 +00000-0 +57223-4 0  9991
2 40912 097.4514 066.7526 0016842 039.7288 044.1103 15.18470996134920
TIANWANG 1C (TW-1C)
1 40926U 15051B   18058.52580507  .00007727  00000-0  15347-3 0  9993
2 40926  97.1985 101.4333 0009433 328.8043 163.9565 15.47216401136347
TIANWANG 1B (TW-1B)
1 40927U 15051C   18058.52567916  .00007505  00000-0  15531-3 0  9992
2 40927  97.2077 101.3255 0009309 340.8873 151.8971 15.46028764136260
TIANWANG 1A (TW-1A)
1 40928U 15051D   18057.87171296 +.00003046 +00000-0 +83393-4 0  9990
2 40928 097.1996 094.0073 0012359 008.8929 344.6867 15.38030542135812
LAPAN A2
1 40931U 15052B   18054.92071322 +.00000689 +00000-0 +69550-5 0  9997
2 40931 005.9974 237.8064 0012558 205.7337 154.2135 14.76565890130232
LQSAT
1 40958U 15057A   18058.52886815  .00000032  00000-0  12746-4 0  9998
2 40958  97.9501 134.0298 0017582 332.9539  27.0753 14.73017838128707
CHUBUSAT 2
1 41338U 16012B   18057.91317000 +.00000367 +00000-0 +22062-4 0  9993
2 41338 031.0032 294.2438 0013685 061.1716 299.0292 14.99925558111268
CHUBUSAT 3
1 41339U 16012C   18058.00737836  .00000335  00000-0  19429-4 0  9996
2 41339  31.0123 292.4018 0013374  69.5234 290.6836 15.00117130111269
OUFTI-1
1 41458U 16025C   18058.23259748  .00002860  00000-0  15234-3 0  9992
2 41458  98.1508 115.1546 0171716 156.1303 204.8035 15.04290041100908
E-STAR-2
1 41459U 16025D   18057.88817910 +.00002040 +00000-0 +11014-3 0  9996
2 41459 098.1526 114.6736 0173314 157.7418 203.1420 15.04054067100843
AAUSAT 4
1 41460U 16025E   18058.23264050  .00003203  00000-0  16959-3 0  9994
2 41460  98.1443 115.3750 0163985 153.3776 207.6037 15.05340063100948
NUSAT 1
1 41557U 16033B   18058.16160004  .00001381  00000-0  53177-4 0  9995
2 41557  97.4423 142.5687 0013910 180.0769 180.0471 15.28025615 97351
BEESAT 4
1 41619U 16040W   18057.87692114 +.00001353 +00000-0 +62696-4 0  9996
2 41619 097.4292 122.4950 0010155 254.6014 105.4101 15.21774140081310
BEESAT 4
1 41619U 16040W   18057.87692114  .00001353  00000-0  62696-4 0  9996
2 41619  97.4292 122.4950 0010155 254.6014 105.4101 15.21774140 81310
PRATHAM
1 41783U 16059A   18057.74385525 +.00000062 +00000-0 +21368-4 0  9996
2 41783 098.1325 121.0098 0034905 082.9286 277.5884 14.62902665075813
ALSAT 1N
1 41789U 16059G   18058.40897144  .00000063  00000-0  21095-4 0  9999
2 41789  98.1323 122.6668 0029762  73.6136 286.8337 14.64129654 75955
NAYIF 1
1 42017U 17008BX  18057.87392012 +.00001487 +00000-0 +64220-4 0  9991
2 42017 097.4620 123.5375 0007758 056.9683 303.2298 15.24068719057264
LILACSAT-1
1 42725U 98067ME  18057.83387508  .00021197  00000-0  22276-3 0  9995
2 42725  51.6359 198.7902 0004657 180.8172 179.2817 15.64270602 43214
MAX VALIER SAT
1 42778U 17036P   18057.93283514  .00000933  00000-0  45049-4 0  9992
2 42778  97.4182 119.4091 0014435  96.2003 264.0878 15.21056000 37749
